Regional Weather Roundup
Issued by NWS

Home | Current Version | Previous Version | Graphics & Text | Print | Product List | Glossary On
Versions: 1 2 3 4 5 6 7 8 9 10 11 12 13 14 15 16 17 18 19 20 21 22 23 24 25 26 27 28 29 30 31 32 33 34 35 36 37 38 39 40 41 42 43 44 45 46 47 48 49 50
000
ASUS43 KDMX 222007
RWRIA

WEATHER ROUNDUP FOR IOWA
NATIONAL WEATHER SERVICE DES MOINES IA
300 PM CDT FRI MAY 22 2015

NOTE: "FAIR" INDICATES FEW OR NO CLOUDS BELOW 12,000 FEET WITH NO
SIGNIFICANT WEATHER AND/OR OBSTRUCTIONS TO VISIBILITY.

* - THESE STATIONS ARE NOT NWS STATIONS...THUS NOT UNDER NWS
QUALITY CONTROL.  THEY ALSO DO NOT REPORT WEATHER SUCH
AS PRECIPITATION OR FOG.

IAZ001>003-012>014-020>022-031>034-043>046-222100-
   NORTHWEST IOWA

CITY           SKY/WX    TMP DP  RH WIND       PRES   REMARKS
CARROLL *      SUNNY     73  36  25 CALM      30.20S
CHEROKEE *     CLOUDY    73  37  27 CALM      30.19S
DENISON *      PTSUNNY   70  43  37 SW10      30.19S
LE MARS *      MOSUNNY   73  37  27 S12       30.19F
ORANGE CITY *  SUNNY     72  36  26 S5        30.19F
SHELDON *      SUNNY     73  32  21 VRB6      30.18S
SIOUX CITY     CLOUDY    73  39  29 SW12      30.20S
SPENCER        CLOUDY    74  31  20 N3        30.20S
STORM LAKE *   SUNNY     72  32  23 CALM      30.20F
$$

IAZ055>058-069>071-079>083-090>094-222100-
   SOUTHWEST IOWA

CITY           SKY/WX    TMP DP  RH WIND       PRES   REMARKS
ATLANTIC *     SUNNY     70  43  37 S13       30.22S
AUDUBON *      SUNNY     72  39  30 SW6       30.22S
CLARINDA *     SUNNY     64  54  68 SW12G18   30.25S
COUNCIL BLFS * SUNNY     66  46  48 SW13      30.24R
CRESTON *        N/A    N/A N/A N/A MISG        N/A
HARLAN  *      SUNNY     72  41  33 VRB6G14   30.25S
LAMONI         CLOUDY    71  51  49 SW7       30.23F
RED OAK *      SUNNY     68  45  42 S10       30.23S
SHENANDOAH *   MOSUNNY   64  52  63 SW9       30.25S
$$

IAZ047>049-059>061-072>074-084-222100-
   CENTRAL IOWA

CITY           SKY/WX    TMP DP  RH WIND       PRES   REMARKS
AMES           CLOUDY    74  37  26 N5        30.20S
ANKENY *       SUNNY     73  37  27 CALM      30.20F
CHARITON *     SUNNY     73  41  31 VRB6G12   30.21F
DES MOINES     CLOUDY    77  37  23 NW5       30.21S
GRINNELL*      CLOUDY    73  32  21 CALM      30.21S
KNOXVILLE *    SUNNY     75  36  23 VRB6      30.20F
MARSHALLTOWN   CLOUDY    74  37  26 S7        30.19F
PELLA *        CLOUDY    75  46  35 SW3       30.22F
PERRY *          N/A     73  32  21 S3        30.20S
$$

IAZ004>006-015-016-023>025-035-036-222100-
   NORTH CENTRAL IOWA

CITY           SKY/WX    TMP DP  RH WIND       PRES   REMARKS
ALGONA *       SUNNY     72  34  25 SE5       30.21S
CLARION *      SUNNY     73  32  21 CALM      30.20S
ESTHERVILLE    PTSUNNY   73  34  23 E6        30.19F
FORT DODGE *   CLOUDY    72  41  33 CALM      30.21F
MASON CITY     MOSUNNY   73  33  23 VRB3      30.21F
FOREST CITY *  SUNNY     70  36  28 CALM      30.20F
IOWA FALLS *     N/A     73  34  23 CALM      30.21S
$$

IAZ007>011-017>019-026>030-037>042-050>054-066-222100-
   NORTHEAST IOWA

CITY           SKY/WX    TMP DP  RH WIND       PRES   REMARKS
CEDAR RAPIDS   CLOUDY    73  35  25 CALM      30.19F
CHARLES CITY * SUNNY     73  30  20 VRB5      30.20F
CLINTON *      MOSUNNY   73  41  31 SW5       30.22S
DECORAH *      SUNNY     72  34  25 VRB5      30.20F
DUBUQUE        SUNNY     73  41  31 CALM      30.21F
MONTICELLO *   SUNNY     75  32  20 NW5       30.20F
OELWEIN *      SUNNY     73  34  23 CALM      30.20F
WATERLOO       PTSUNNY   74  34  23 CALM      30.19F
$$

IAZ064-065-067-068-078-222100-
   EAST CENTRAL IOWA

CITY           SKY/WX    TMP DP  RH WIND       PRES   REMARKS
DAVENPORT      PTSUNNY   76  30  18 SW6       30.20S
IOWA CITY      CLOUDY    74  38  27 CALM      30.21F
MT. PLEASANT * CLOUDY    75  36  23 CALM      30.21S
MUSCATINE *    SUNNY     77  37  24 W7        30.21S
QUAD CITIES    PTSUNNY   76  36  23 VRB3      30.19S
$$

IAZ062-063-075>077-085>089-095>099-222100-
   SOUTHEAST IOWA

CITY           SKY/WX    TMP DP  RH WIND       PRES   REMARKS
BURLINGTON     CLOUDY    75  41  29 CALM      30.21S
FAIRFIELD *    SUNNY     73  34  23 VRB6      30.21F
FORT MADISON * SUNNY     73  45  35 S7        30.22F
KEOKUK *       SUNNY     75  41  29 VRB6G12   30.21F
OSKALOOSA *      N/A     75  34  22 W8        30.21F
CENTERVILLE *  SUNNY     73  73 100 SW6       30.23F
OTTUMWA        CLOUDY    76  42  29 NW6       30.21S
WASHINGTON *   SUNNY     73  36  25 CALM      30.22S
$$

ABBREVIATIONS USED IN REMARKS
   TC - TEMPERATURES IN CELSIUS
  WCI - WIND CHILL INDEX
   HX - HEAT INDEX
  VSB - VISIBILITY
$$



USA.gov is the U.S. government's official web portal to all federal, state and local government web resources and services.